User: anonymous   Login
Location: Edmonton
(53.5500°N, 113.5000°W)
Time: 12:06:37
(UTC-06:00)
Language:

CZ-4C R/B - Orbit

View from above orbital plane
View from above orbital plane
View from above satellite
View from above satellite

Ground track
Ground track

The orbit data is extracted from the following two-line orbital elements,

1 36416U 10009D   15089.85412602 -.00000015  00000-0  67134-4 0  9993
2 36416 063.4459 272.7459 0307585 359.1586 000.8895 13.69460364253534
Epoch (UTC): 30 March 2015 20:29:56
Eccentricity: 0.0307585
inclination: 63.4459°
perigee height: 774 km
apogee height: 1228 km
right ascension of ascending node: 272.7459°
argument of perigee: 359.1586°
revolutions per day: 13.69460364
mean anomaly at epoch: 0.8895°
orbit number at epoch: 25353

The dashed part of the orbit path shows where the satellite is in the earth's shadow,  

DLR